[[{"header":{"parameterUnit":"m.s-1","parameterCategory":1,"la1":30.2991,"la2":30.254,"lo1":-89.0895,"lo2":-89.0444,"dy":0.0017,"dx":0.0017,"nx":28,"ny":28,"refTime":"2024-08-17T09:00:00:Z","depth":0,"parameterNumber":2,"parameterNumberName":"U-component_of_WINDS"},"data":[0,0,0,0,0,0,0,0,0,0,0,0,0,0,0,0,0,0,0,0,0,0,0,0,0,0,0,0,0,0,0,0,0,0,0,0,0,0,0,0,0,0,0,0,0,0,0,0,0,0,0,0,0,0,0,0,0,0,1.1678,1.1678,0,1.1699,1.1699,1.1699,1.1713,1.1713,1.1714,1.1714,1.1736,1.1737,1.1737,0,0,0,0,0,0,0,0,0,0,0,0,0,1.1651,1.1652,1.1678,1.1678,1.1679,1.1699,1.1699,1.1699,1.1713,1.1713,1.1714,1.1714,1.1736,1.1736,1.1737,0,0,0,0,0,0,0,0,0,0,0,0,0,1.1667,1.1652,1.1678,1.1688,1.1689,1.1699,1.1699,1.1699,1.1713,1.1713,1.1714,1.1714,1.1736,1.1736,1.1737,1.1739,0,0,1.1739,1.174,0,0,0,0,0,0,0,0,1.1666,1.1668,1.1686,1.1687,1.1689,1.1704,1.1698,1.1713,1.1713,1.1704,1.1714,1.1714,1.1725,1.1727,1.173,1.174,1.1741,1.174,1.174,1.174,1.1741,0,0,0,0,0,0,0,1.1665,1.1667,1.1686,1.1687,1.1688,1.1692,1.1694,1.1701,1.1714,1.1705,1.1706,1.1708,1.1726,1.173,1.1731,1.1741,1.174,1.174,1.1741,1.1741,1.1753,1.1753,0,0,0,0,0,0,1.1662,1.1666,1.1686,1.1687,1.1677,1.1692,1.1695,1.1699,1.1714,1.1716,1.1708,1.1709,1.1728,1.173,1.1732,1.1735,1.174,1.1741,1.1741,1.1753,1.1753,1.1753,0,0,0,0,0,0,1.1661,1.1663,1.1685,1.1677,1.168,1.1692,1.1697,1.1699,1.1703,1.1716,1.1718,1.171,1.1729,1.1731,1.1737,1.1736,1.1741,1.1742,1.1753,1.1753,1.1753,1.174,0,0,0,0,0,0,1.166,1.1663,1.1664,1.1677,1.168,1.1689,1.1697,1.1699,1.1704,1.1705,1.1718,1.172,1.1729,1.1736,1.1738,1.1737,1.1743,1.1753,1.1753,1.1753,1.1741,1.1739,1.1738,0,0,0,0,0,1.1659,1.166,1.1664,1.1666,1.1681,1.1689,1.1691,1.1701,1.1704,1.1705,1.1713,1.172,1.1735,1.1736,1.1738,1.1738,1.1753,1.1753,1.1753,1.1741,1.174,1.1738,0,0,0,0,0,0,1.1647,1.1662,1.1666,1.1671,1.1678,1.1691,1.1693,1.1699,1.1706,1.1707,1.1719,1.1722,1.1726,1.1733,1.1733,1.174,1.1745,1.1745,1.1736,1.1734,1.1733,1.1731,1.1743,0,0,0,0,0,1.1645,1.165,1.1662,1.1665,1.1669,1.168,1.1684,1.169,1.1699,1.1703,1.1712,1.172,1.1727,1.1731,1.1738,1.1742,1.1744,1.1742,1.1741,1.174,1.174,1.1742,1.1741,1.1752,1.1752,1.1752,0,0,1.164,1.1649,1.1652,1.1663,1.167,1.1675,1.1683,1.1688,1.1692,1.1704,1.171,1.1716,1.1726,1.1731,1.1734,1.1737,1.1738,1.174,1.1739,1.1739,1.1742,1.1741,1.174,1.1751,1.1751,1.1751,0,0,1.1635,1.1642,1.1645,1.1651,1.1661,1.1668,1.1669,1.1681,1.1686,1.1692,1.1701,1.1706,1.1717,1.1724,1.1729,1.1725,1.1731,1.1727,1.1721,1.1723,1.1722,1.1721,1.172,1.1719,1.1727,1.1727,1.1727,0,1.1628,1.1636,1.1646,1.165,1.1655,1.1665,1.1668,1.1674,1.1686,1.1689,1.1692,1.1706,1.1714,1.172,1.1719,1.1722,1.1723,1.1725,1.1721,1.1721,1.172,1.1719,1.1718,1.1726,1.1726,1.1726,1.1726,0,1.1627,1.1632,1.1633,1.1644,1.1649,1.1652,1.1663,1.1666,1.1672,1.1679,1.1685,1.1695,1.1703,1.1706,1.1712,1.1712,1.1714,1.1719,1.1724,1.1718,1.1717,1.1717,1.1725,1.1725,1.1726,1.1726,0,0,1.1614,1.163,1.163,1.1635,1.1646,1.165,1.1655,1.1663,1.1665,1.1673,1.1677,1.1686,1.169,1.1696,1.1703,1.1705,1.1701,1.171,1.171,1.1707,1.1701,1.1697,1.1696,1.1705,1.1705,1.1705,1.17,0,1.161,1.1618,1.1626,1.1631,1.1636,1.1645,1.1649,1.1656,1.1663,1.1668,1.1675,1.1681,1.1687,1.169,1.1693,1.1701,1.1699,1.1701,1.1708,1.1708,1.1705,1.1696,1.1692,1.1687,1.17,1.17,1.17,0,1.1607,1.1613,1.1618,1.1628,1.1631,1.1634,1.1642,1.1646,1.1655,1.166,1.1665,1.1673,1.1677,1.1682,1.1689,1.169,1.1693,1.1698,1.1698,1.1698,1.1704,1.1696,1.1686,1.1685,1.1699,1.1699,1.1699,0,1.1596,1.1607,1.1611,1.1614,1.1627,1.1629,1.1634,1.1643,1.1647,1.1654,1.1657,1.1664,1.1668,1.1674,1.1683,1.1686,1.1689,1.1694,1.1692,1.1692,1.1692,1.1692,1.1682,1.1695,1.1695,1.1695,1.1695,0,1.1591,1.1593,1.1606,1.1609,1.1612,1.1621,1.1624,1.163,1.1638,1.1642,1.1651,1.1654,1.1666,1.1671,1.1679,1.1683,1.1685,1.1688,1.169,1.1687,1.1687,1.169,1.169,1.1695,1.1695,1.1695,1.1695,0,1.158,1.1589,1.1594,1.1605,1.1608,1.1609,1.1619,1.1622,1.1629,1.1633,1.1635,1.1646,1.1652,1.1662,1.1671,1.1676,1.1679,1.1682,1.1675,1.1676,1.1674,1.1674,1.1665,1.1664,1.1678,1.1678,1.1678,0,1.1576,1.1578,1.1589,1.1592,1.1597,1.1601,1.1605,1.1615,1.1619,1.1629,1.163,1.1637,1.1643,1.1652,1.1661,1.1668,1.1671,1.1668,1.1672,1.1669,1.1671,1.167,1.167,1.1666,1.1666,1.1666,1.1666,0,1.1567,1.1571,1.1576,1.1583,1.1587,1.1593,1.1599,1.1601,1.1613,1.1616,1.1623,1.1627,1.1636,1.1642,1.165,1.1656,1.1663,1.1664,1.1664,1.1661,1.1657,1.1659,1.1672,1.1665,1.1665,1.1665,1.1665,1.1665,1.1559,1.1561,1.1569,1.1574,1.158,1.1585,1.1588,1.1595,1.16,1.1608,1.1614,1.1619,1.1627,1.1639,1.1644,1.1648,1.1651,1.1651,1.1651,1.1651,1.165,1.1656,1.165,1.165,1.165,1.165,1.165,0,1.155,1.1556,1.156,1.1569,1.1573,1.1578,1.1585,1.1589,1.1593,1.16,1.1605,1.1612,1.1618,1.1627,1.1634,1.1636,1.1639,1.1637,1.1637,1.1638,1.1647,1.1646,1.1635,1.1635,1.1635,1.1635,1.1635,1.1635,1.1546,1.1549,1.1554,1.1561,1.1566,1.1571,1.1575,1.158,1.1585,1.1592,1.1597,1.1603,1.161,1.1618,1.1623,1.1626,1.1628,1.1625,1.1628,1.1636,1.1638,1.1639,1.1638,1.1625,1.1625,1.1619,1.1619,1.1619]},{"header":{"parameterUnit":"m.s-1","parameterCategory":1,"la1":30.2991,"la2":30.254,"lo1":-89.0895,"lo2":-89.0444,"dy":0.0017,"dx":0.0017,"nx":28,"ny":28,"refTime":"2024-08-17T09:00:00:Z","depth":0,"parameterNumber":3,"parameterNumberName":"V-component_of_WINDS"},"data":[0,0,0,0,0,0,0,0,0,0,0,0,0,0,0,0,0,0,0,0,0,0,0,0,0,0,0,0,0,0,0,0,0,0,0,0,0,0,0,0,0,0,0,0,0,0,0,0,0,0,0,0,0,0,0,0,0,0,1.1913,1.1913,0,1.1942,1.1942,1.1942,1.196,1.196,1.196,1.196,1.1987,1.1988,1.1989,0,0,0,0,0,0,0,0,0,0,0,0,0,1.1871,1.1872,1.1913,1.1913,1.1914,1.1942,1.1942,1.1942,1.196,1.196,1.196,1.196,1.1987,1.1988,1.1989,0,0,0,0,0,0,0,0,0,0,0,0,0,1.1893,1.1872,1.1913,1.1926,1.1927,1.1942,1.1942,1.1943,1.196,1.196,1.196,1.196,1.1987,1.1988,1.1989,1.1992,0,0,1.1992,1.1992,0,0,0,0,0,0,0,0,1.1892,1.1895,1.1924,1.1925,1.1927,1.1947,1.1937,1.1959,1.196,1.1947,1.196,1.196,1.1974,1.1976,1.1981,1.1993,1.1995,1.1992,1.1993,1.1993,1.1993,0,0,0,0,0,0,0,1.189,1.1894,1.1924,1.1924,1.1926,1.1929,1.1933,1.1941,1.1959,1.1948,1.195,1.1953,1.1975,1.198,1.1982,1.1995,1.1992,1.1993,1.1993,1.1994,1.2011,1.201,0,0,0,0,0,0,1.1887,1.1892,1.1923,1.1925,1.1909,1.193,1.1934,1.194,1.1959,1.1962,1.1953,1.1954,1.1978,1.1981,1.1983,1.1987,1.1993,1.1994,1.1994,1.2011,1.2011,1.201,0,0,0,0,0,0,1.1886,1.189,1.1922,1.1909,1.1914,1.1931,1.1938,1.1941,1.1946,1.1963,1.1966,1.1955,1.1978,1.1981,1.199,1.1989,1.1994,1.1995,1.2011,1.2011,1.201,1.1997,0,0,0,0,0,0,1.1885,1.1889,1.1891,1.1909,1.1914,1.1929,1.1938,1.1941,1.1948,1.195,1.1966,1.1968,1.1979,1.1988,1.1991,1.199,1.1996,1.2011,1.2011,1.2011,1.1997,1.1996,1.1995,0,0,0,0,0,1.1883,1.1886,1.1891,1.1895,1.1917,1.1929,1.1932,1.1945,1.1948,1.195,1.196,1.1968,1.1988,1.1989,1.1992,1.1991,1.2011,1.2011,1.2011,1.1998,1.1996,1.1995,0,0,0,0,0,0,1.1868,1.1889,1.1895,1.1904,1.1915,1.1932,1.1935,1.1943,1.1952,1.1953,1.1967,1.1971,1.1977,1.1985,1.1986,1.1995,1.2,1.2001,1.199,1.1988,1.1987,1.1985,1.1997,0,0,0,0,0,1.1865,1.1874,1.1892,1.1898,1.1903,1.1918,1.1924,1.1932,1.1944,1.1948,1.1959,1.197,1.1978,1.1984,1.1993,1.1998,1.2002,1.1999,1.1998,1.1997,1.1997,1.2,1.1999,1.2009,1.2009,1.2009,0,0,1.186,1.1873,1.1878,1.1895,1.1904,1.1912,1.1922,1.193,1.1936,1.1949,1.1958,1.1966,1.1979,1.1985,1.1989,1.1992,1.1995,1.1997,1.1996,1.1997,1.1999,1.1998,1.1998,1.2009,1.2009,1.2009,0,0,1.1856,1.1866,1.1872,1.1881,1.1896,1.1905,1.1907,1.1923,1.1929,1.1938,1.1948,1.1955,1.197,1.1978,1.1984,1.1981,1.1988,1.1983,1.1977,1.198,1.1979,1.1978,1.1976,1.1976,1.1983,1.1983,1.1983,0,1.1848,1.1861,1.1874,1.1882,1.1888,1.1901,1.1907,1.1915,1.1931,1.1935,1.1938,1.1957,1.1966,1.1975,1.1974,1.1978,1.198,1.1982,1.1978,1.1977,1.1977,1.1975,1.1975,1.1983,1.1983,1.1983,1.1983,0,1.185,1.1859,1.1861,1.1877,1.1884,1.1891,1.1904,1.1909,1.1917,1.1926,1.1934,1.1946,1.1957,1.1959,1.1967,1.1968,1.197,1.1975,1.1981,1.1975,1.1974,1.1973,1.1982,1.1982,1.1982,1.1982,0,0,1.1837,1.1859,1.186,1.1867,1.1883,1.1889,1.1896,1.1907,1.1911,1.1921,1.1927,1.1938,1.1943,1.195,1.1958,1.196,1.1956,1.1966,1.1966,1.1963,1.1958,1.1954,1.1953,1.1961,1.1961,1.1961,1.1957,0,1.1834,1.1847,1.1859,1.1867,1.1875,1.1887,1.1892,1.1902,1.191,1.1917,1.1926,1.1934,1.194,1.1944,1.1947,1.1956,1.1956,1.1957,1.1966,1.1966,1.1962,1.1953,1.1948,1.1944,1.1957,1.1957,1.1957,0,1.1833,1.1843,1.1852,1.1867,1.187,1.1875,1.1886,1.1893,1.1904,1.1909,1.1917,1.1925,1.1931,1.1936,1.1945,1.1945,1.1949,1.1954,1.1954,1.1956,1.1961,1.1953,1.1943,1.1942,1.1956,1.1956,1.1956,0,1.1822,1.1838,1.1845,1.1851,1.1868,1.1871,1.1878,1.1889,1.1895,1.1904,1.1907,1.1917,1.1922,1.1928,1.1939,1.1942,1.1946,1.1952,1.195,1.195,1.1951,1.195,1.194,1.1953,1.1953,1.1953,1.1954,0,1.1818,1.1823,1.184,1.1845,1.185,1.1863,1.1868,1.1876,1.1886,1.1891,1.1902,1.1907,1.192,1.1926,1.1934,1.194,1.1942,1.1946,1.1948,1.1945,1.1944,1.1948,1.1948,1.1953,1.1953,1.1953,1.1953,0,1.1807,1.1819,1.1828,1.1843,1.1847,1.185,1.1863,1.1867,1.1876,1.1882,1.1885,1.1898,1.1906,1.1917,1.1928,1.1933,1.1937,1.194,1.1933,1.1934,1.1932,1.1932,1.1924,1.1923,1.1937,1.1936,1.1936,0,1.1804,1.1808,1.1824,1.1828,1.1835,1.1842,1.1848,1.186,1.1866,1.1878,1.188,1.1889,1.1896,1.1908,1.1918,1.1926,1.193,1.1926,1.1931,1.1927,1.1929,1.1929,1.1929,1.1925,1.1925,1.1925,1.1924,0,1.1797,1.1802,1.181,1.182,1.1826,1.1835,1.1843,1.1846,1.186,1.1865,1.1874,1.1879,1.189,1.1898,1.1908,1.1914,1.1921,1.1923,1.1923,1.192,1.1915,1.1917,1.193,1.1923,1.1923,1.1923,1.1923,1.1923,1.1789,1.1793,1.1804,1.1813,1.182,1.1828,1.1832,1.1841,1.1848,1.1859,1.1865,1.1872,1.1882,1.1895,1.1901,1.1907,1.191,1.191,1.191,1.191,1.1909,1.1914,1.1909,1.1909,1.1909,1.1909,1.1909,0,1.1782,1.179,1.1797,1.1809,1.1815,1.1821,1.1831,1.1836,1.1842,1.1851,1.1858,1.1866,1.1874,1.1884,1.1892,1.1895,1.1898,1.1896,1.1896,1.1897,1.1906,1.1905,1.1893,1.1893,1.1893,1.1893,1.1893,1.1893,1.1779,1.1786,1.1792,1.1802,1.1809,1.1817,1.1822,1.1829,1.1835,1.1845,1.1851,1.1858,1.1867,1.1875,1.1882,1.1885,1.1887,1.1884,1.1888,1.1896,1.1897,1.1898,1.1897,1.1885,1.1885,1.1879,1.1879,1.1879]}]]